Content
SEND FEEDBACK

Daily
Averages
Monthly
Summary
Mexico

CANCUN, QUINTANA ROO


Home > North America > Mexico > Quintana Roo
Elevation: 9 meters     Latitude: 21 09N     Longitude: 086 49W

WEATHER
 
SELECT A DAY
Number of Records: 167,103;   Date Range: 1/1/95 - 11/21/14
 
SHARE

PRINT THIS DATA

[ ← Previous Day ]
WEATHER ALMANAC - 15 FEBRUARY, 2013
[ Next Day → ]
[ °F ]   °C
Weather ElementAverageHighLow
Temperature25.7 °C30 °C (11:44 am)22 °C (9:42 pm)
Dewpoint21.4 °C22 °C (1:44 am)18 °C (11:44 am)
Humidity78.7 %94 % (2:46 am)48 % (11:44 am)
Barometer1013.2 hPa1015.2 hPa (9:44 am)1011.5 hPa (2:50 pm)
Wind Speed8.9 km/h20.4 km/h (12:42 pm)
Weather ElementAverage
Visibility10.8 km
Wind DirectionSSE (146.1 °)

Weather ElementTotal
Precipitation---
Cooling Degree Days7.7 (Base 18.3)
Growing Degree Days16 (Base 10)
Averaged from 23 records on 15 February, 2013
WEATHER CONDITIONS BREAKOUT
WIND DIRECTION BREAKOUT
WEATHER BY HOUR - 15 FEBRUARY, 2013
[ °F ]   °C
Local TimeTemperatureDewpointHumidityBarometerVisibilityWind DirectionWind SpeedGust SpeedPrecipitationEventsConditions
1:44 AM24 °C22 °C89 %1012.5 hPa11.3 kmCalmMostly Cloudy
2:46 AM23 °C22 °C94 %1012.2 hPa11.3 kmCalmMostly Cloudy
3:45 AM23 °C22 °C94 %1012.5 hPa11.3 kmNW (320°)9.3 km/hScattered Clouds
4:44 AM23 °C22 °C94 %1012.9 hPa11.3 kmCalmPartly Cloudy
5:43 AM23 °C22 °C94 %1012.9 hPa11.3 kmNW (320°)9.3 km/hScattered Clouds
6:42 AM23 °C22 °C94 %1013.9 hPa11.3 kmNorth (10°)9.3 km/hMostly Cloudy
7:46 AM24 °C22 °C89 %1014.6 hPa11.3 kmSE (130°)3.7 km/hMostly Cloudy
8:44 AM27 °C22 °C74 %1014.6 hPa11.3 kmSouth (190°)13 km/hOvercast
9:44 AM29 °C21 °C62 %1015.2 hPa11.3 kmSouth (190°)11.1 km/hMostly Cloudy
10:46 AM29 °C20 °C58 %1014.6 hPa11.3 kmSouth (180°)13 km/hMostly Cloudy
11:44 AM30 °C18 °C48 %1013.9 hPa11.3 kmSSE (150°)7.4 km/hMostly Cloudy
12:42 PM29 °C21 °C62 %1013.2 hPa11.3 kmSSE (150°)20.4 km/hMostly Cloudy
1:41 PM30 °C20 °C55 %1012.2 hPa11.3 kmSSE (160°)16.7 km/hMostly Cloudy
2:50 PM29 °C20 °C58 %1011.5 hPa11.3 kmSSE (150°)14.8 km/hMostly Cloudy
3:49 PM27 °C22 °C74 %1011.5 hPa11.3 kmSE (140°)18.5 km/hMostly Cloudy
4:43 PM28 °C21 °C66 %1011.9 hPa11.3 kmSE (140°)14.8 km/hMostly Cloudy
5:47 PM26 °C22 °C78 %1012.5 hPa11.3 kmESE (120°)7.4 km/hMostly Cloudy
6:41 PM26 °C22 °C78 %1012.9 hPa11.3 kmESE (120°)7.4 km/hMostly Cloudy
7:42 PM26 °C22 °C78 %1013.5 hPa11.3 kmEast (80°)3.7 km/hMostly Cloudy
8:44 PM24 °C22 °C89 %1013.9 hPa8 kmWSW (240°)13 km/hRainRain
9:42 PM22 °C21 °C94 %1014.6 hPa8 kmWNW (290°)5.6 km/hRainLight Rain
10:46 PM23 °C22 °C94 %1014.9 hPa9.7 kmWest (280°)5.6 km/hMostly Cloudy
11:49 PM23 °C22 °C94 %1014.2 hPa9.7 kmCalmMostly Cloudy
Hourly data recorded from MMUN, located 0 kilometers away from Cancun, Quintana Roo







STORIES FROM OUR PARTNERS